Regional Weather Roundup
Issued by NWS

Home | Current Version | Previous Version | Text Only | Print | Product List | Glossary Off
Versions: 1 2 3 4 5 6 7 8 9 10 11 12 13 14 15 16 17 18 19 20 21 22 23 24 25 26 27 28 29 30 31 32 33 34 35 36 37 38 39 40 41 42 43 44 45 46 47 48 49 50

725
ASUS44 KLIX 310301
RWRLA
LOUISIANA WEATHER ROUNDUP
NATIONAL WEATHER SERVICE NEW ORLEANS LA
1000 PM CDT WED JUL 30 2014

NOTE: "FAIR" INDICATES FEW OR NO CLOUDS BELOW 12,000 FEET WITH NO
      SIGNIFICANT WEATHER AND/OR OBSTRUCTIONS TO VISIBILITY.
      SKY/WX - SKY CONDITION AND SIGNIFICANT WEATHER.
      TMP - AIR TEMPERATURE.    DP   - DEWPOINT TEMPERATURE.
      RH  - RELATIVE HUMIDITY.  PRES - PRESSURE.
      HX  - HEAT INDEX.         WCI  - WIND CHILL INDEX.

*  THESE STATIONS ARE NOT NWS OR FAA STATIONS AND ARE NOT UNDER
   NWS QUALITY CONTROL.

LAZ040-048-061>063-065-066-069-310400-
SOUTHEAST LOUISIANA

CITY           SKY/WX    TMP DP  RH WIND       PRES   REMARKS
N.O. AUDUBON   NOT AVBL
N.O. INTL ARPT PTCLDY    80  61  52 NE8       30.02R
N.O. LAKEFRONT CLEAR     83  61  47 NE12      30.03R
N.O. DOWNTOWN* FAIR      82  57  42 NE5       30.03R
SLIDELL        CLEAR     71  66  84 CALM      30.02R
BATON ROUGE    CLEAR     74  65  73 NE3       30.02R
BOOTHVILLE     CLEAR     78  65  63 CALM      30.03R
BELLE CHASSE   PTCLDY    71  65  81 CALM      30.02R
BOGALUSA*      FAIR      72  65  80 CALM      30.05R
GALLIANO*      NOT AVBL
NEW ROADS*     FAIR      73  67  82 NE3       30.02S
GONZALES*      FAIR      72  70  93 CALM      30.02R
HAMMOND*       CLEAR     72  64  78 CALM      30.05R
HOUMA*         CLEAR     76  64  67 CALM      30.02R
PORT FOURCHON* PTCLDY    82  68  61 E3        30.03S

$$

LAZ041-044-053-054-310400-
SOUTHWEST LOUISIANA

CITY           SKY/WX    TMP DP  RH WIND       PRES   REMARKS
LAKE CHARLES   CLEAR     80  67  64 E8        29.99S
LAFAYETTE      CLEAR     76  69  79 CALM      30.02R
PATTERSON      CLEAR     73  70  88 CALM      30.06R
SALT POINT       N/A     79  69  71 CALM      30.01R
NEW IBERIA     CLEAR     78  67  68 N5        30.03R
CHENAULT AIRPK CLEAR     77  66  68 E7        30.01S

$$

LAZ027-028-310400-
CENTRAL LOUISIANA

CITY           SKY/WX    TMP DP  RH WIND       PRES   REMARKS
FORT POLK      CLEAR     78  64  61 E6        30.01S
ALEXANDRIA INT PTCLDY    79  65  62 E7        30.00S
ALEXANDRIA     PTCLDY    74  68  81 CALM      30.03R

$$

LAZ001-002-310400-
NORTHWEST LOUISIANA

CITY           SKY/WX    TMP DP  RH WIND       PRES   REMARKS
SHREVEPORT     CLOUDY    78  64  61 E14       30.01R
BARKSDALE AFB  MOCLDY    76  64  67 E6        30.02R
DTN SHREVEPORT MOCLDY    76  63  64 E7        30.02R

$$

LAZ014-016-310400-
NORTHEAST LOUISIANA

CITY           SKY/WX    TMP DP  RH WIND       PRES   REMARKS
MONROE         CLOUDY    75  63  66 NE9       30.06R
TALLULAH       CLOUDY    73  65  75 CALM      30.04S

$$




USA.gov is the U.S. government's official web portal to all federal, state and local government web resources and services.